Dewpoint
55 55 54 50 49 49 52 49 49 50 48 48 47 49 48 52 53 54 54 55 54 52 51 51 50 51 50 50 49 46 48 51 50 50 50 49 49 50 49 49 50 49
57 56 53 52 50 49 51 51 51 49 49 50 49 48 50 52 54 54 55 55 54 53 51 51 51 50 49 48 48 47 47 50 50 49 51 51 50 50 50 50 49 48
58 58 57 55 53 54 55 54 53 51 49 50 51 50 51 54 54 54 55 55 53 53 52 50 50 49 49 49 48 47 47 48 49 49 49 49 49 49 49 48 47 48
58 58 57 57 56 56 56 54 54 52 51 51 51 52 53 54 53 54 55 54 53 53 52 51 50 49 48 48 49 47 47 47 47 49 49 49 49 48 48 48 47 47
58 58 57 57 56 57 57 56 54 52 52 51 52 52 51 53 54 53 54 53 53 52 51 51 50 50 49 49 48 48 47 46 47 49 48 48 48 48 47 48 47 46
58 56 56 56 56 57 56 55 54 53 52 53 53 52 50 52 51 52 53 52 52 51 51 50 49 49 48 48 48 48 46 46 47 47 46 47 47 47 43 47 46 44
57 57 57 56 57 57 56 55 55 54 53 54 53 53 51 51 50 50 50 51 51 50 49 49 49 49 49 49 48 47 46 46 45 44 43 45 46 46 45 44 42 40
56 56 56 57 57 57 57 55 55 54 55 54 54 54 52 51 49 51 50 51 49 48 48 47 48 47 48 47 46 47 48 47 46 44 43 44 45 44 45 43 45 43
55 55 55 57 57 57 57 56 55 55 55 56 55 54 53 52 51 51 51 50 49 49 47 47 47 46 48 47 47 46 45 46 46 44 45 46 46 44 39 41 43 43
56 56 56 56 56 56 56 56 55 55 55 56 55 54 54 54 51 50 51 50 50 48 47 47 47 47 47 46 45 45 45 45 44 45 45 44 43 41 39 41 42 42
58 57 56 56 57 56 56 57 57 56 55 54 55 54 54 54 52 51 51 50 51 48 47 47 47 47 46 46 47 46 45 45 43 43 44 43 43 43 43 42 42 41
57 57 57 57 57 58 58 57 57 57 56 56 54 53 54 54 53 52 51 50 49 48 48 47 47 47 46 45 45 46 46 46 44 44 43 42 42 42 41 42 43 41
57 58 58 57 58 58 58 57 56 57 56 55 55 54 54 54 56 53 52 50 49 49 48 48 47 47 47 46 46 45 45 44 45 44 44 44 43 41 40 41 40 39
51 54 57 58 58 57 57 59 60 57 56 56 55 55 54 54 54 52 52 51 50 49 49 48 48 47 46 46 45 45 45 45 44 45 43 44 44 42 41 40 39 38
49 49 51 52 54 56 56 56 56 57 57 56 56 55 55 55 55 52 51 51 50 50 49 49 49 48 47 46 45 44 45 45 44 42 42 41 40 39 39 38 38 38
45 47 47 49 51 52 53 54 54 56 57 56 55 54 55 55 55 55 52 52 50 49 49 50 49 50 46 41 43 44 44 42 42 41 39 38 38 38 38 37 37 37
44 46 47 47 48 50 52 52 52 54 56 56 55 54 54 54 54 53 52 54 51 50 49 50 46 41 36 35 36 37 40 41 40 39 38 37 37 37 36 36 35 33
41 42 43 45 47 46 48 50 52 52 52 53 55 54 55 53 53 52 52 53 52 50 50 46 40 35 34 35 35 34 36 38 38 38 37 36 36 35 33 34 34 35
42 42 42 44 45 47 49 50 50 52 52 52 52 54 54 53 52 52 52 51 51 48 45 39 35 35 34 33 33 33 33 35 35 36 34 35 35 34 34 34 35 35
43 43 43 43 45 47 49 49 50 50 52 52 52 53 53 53 53 53 52 51 48 45 40 36 33 35 34 34 34 33 33 34 35 35 35 34 34 34 36 36 36 36
42 42 43 44 45 46 48 49 50 52 52 51 50 51 53 52 52 52 51 48 44 40 36 34 34 34 34 34 34 34 33 34 36 36 34 34 35 36 36 37 37 38
43 43 43 43 44 46 47 48 49 51 52 51 50 51 52 53 52 51 47 44 40 37 35 32 34 34 34 34 34 34 34 39 33 32 32 33 34 35 36 36 36 37
42 43 43 44 44 44 45 47 49 50 50 50 50 50 50 50 49 46 43 40 37 35 33 31 32 34 34 33 34 33 34 33 32 29 30 33 34 35 35 35 36 36
43 42 43 43 44 43 45 47 49 49 49 49 49 49 48 47 44 40 39 38 36 35 33 31 31 34 34 34 33 34 34 31 29 29 31 32 32 34 34 34 35 39
43 43 43 43 43 44 46 47 48 48 48 50 50 47 44 41 38 37 36 36 37 37 38 34 32 33 34 34 34 34 38 31 27 27 29 31 32 31 33 33 33 36
44 45 45 45 44 45 46 46 49 48 49 47 45 41 38 36 35 35 35 36 37 36 36 34 32 31 34 34 35 34 34 32 29 28 29 31 31 30 31 32 32 33